HAZ8502 UAAA-ZGGG

Flight info

Callsign HAZ8502
Flight time 4h 55m
Altitude 33000
Route PIGAL7E PIGAL M610 RULAD/K0870S1010 A460 XKC L888 KAGSO/K0867S1070 L888 SADAN Y1 OMBON W245 OVRAL B330 MEXAD/K0865S1130 B330 QP G586 PUNIR W45 IKAVO IKAVO8
Aircraft B738/M-SDE2E3FGHIRWXY/LB1

Departure

Time 2026-04-24 02:56
Airport Almaty International Airport (UAAA)

Arrival

Time 2026-04-24 07:52
Airport Guangzhou Baiyun International Airport (ZGGG)
Time Latitude Longitude Altitude Speed Heading
2026-04-24 02:43 43.34682 77.01309 2228 ft 0 kts 246°
2026-04-24 02:48 43.34683 77.01311 2228 ft 3 kts 246°
2026-04-24 02:48 43.34694 77.01344 2223 ft 4 kts 238°
2026-04-24 02:48 43.34710 77.01374 2223 ft 4 kts 226°
2026-04-24 02:49 43.34730 77.01395 2224 ft 4 kts 195°
2026-04-24 02:49 43.34746 77.01397 2224 ft 0 kts 159°
2026-04-24 02:51 43.34745 77.01397 2224 ft 1 kts 159°
2026-04-24 02:51 43.34725 77.01409 2223 ft 4 kts 155°
2026-04-24 02:52 43.34701 77.01426 2227 ft 4 kts 151°
2026-04-24 02:52 43.34676 77.01442 2226 ft 4 kts 156°
2026-04-24 02:52 43.34651 77.01455 2228 ft 4 kts 160°
2026-04-24 02:52 43.34623 77.01462 2226 ft 5 kts 175°
2026-04-24 02:53 43.34586 77.01468 2226 ft 6 kts 168°
2026-04-24 02:53 43.34543 77.01490 2227 ft 7 kts 156°
2026-04-24 02:53 43.34493 77.01522 2227 ft 8 kts 155°
2026-04-24 02:53 43.34436 77.01558 2227 ft 9 kts 155°
2026-04-24 02:54 43.34374 77.01598 2228 ft 10 kts 155°
2026-04-24 02:54 43.34287 77.01652 2225 ft 22 kts 155°
2026-04-24 02:54 43.34183 77.01723 2228 ft 12 kts 142°
2026-04-24 02:54 43.34165 77.01819 2229 ft 11 kts 70°
2026-04-24 02:55 43.34176 77.01847 2225 ft 2 kts 56°
2026-04-24 02:55 43.34189 77.01875 2227 ft 12 kts 56°
2026-04-24 02:55 43.34381 77.02267 2227 ft 87 kts 56°
2026-04-24 02:55 43.34854 77.03216 2225 ft 152 kts 56°
2026-04-24 02:56 43.35551 77.04623 2360 ft 196 kts 57°
2026-04-24 02:56 43.36243 77.06099 3562 ft 174 kts 56°
2026-04-24 02:56 43.36949 77.07535 4214 ft 191 kts 56°
2026-04-24 02:56 43.37751 77.09149 4487 ft 216 kts 55°
2026-04-24 02:57 43.38642 77.10945 4679 ft 239 kts 55°
2026-04-24 02:57 43.39599 77.12880 5097 ft 250 kts 55°
2026-04-24 02:57 43.40623 77.14951 5431 ft 270 kts 55°
2026-04-24 02:57 43.41691 77.17112 6167 ft 274 kts 54°
2026-04-24 02:58 43.42765 77.19291 6923 ft 277 kts 54°
2026-04-24 02:58 43.43850 77.21494 7649 ft 279 kts 55°
2026-04-24 02:58 43.44945 77.23718 8377 ft 282 kts 55°
2026-04-24 02:58 43.46053 77.25972 9122 ft 285 kts 55°
2026-04-24 02:59 43.47169 77.28245 9853 ft 289 kts 55°
2026-04-24 02:59 43.48304 77.30555 10461 ft 295 kts 55°
2026-04-24 02:59 43.49494 77.32982 10643 ft 318 kts 56°
2026-04-24 02:59 43.50778 77.35602 10827 ft 340 kts 56°
2026-04-24 03:00 43.52140 77.38389 10985 ft 361 kts 56°
2026-04-24 03:00 43.53578 77.41331 11246 ft 376 kts 56°
2026-04-24 03:00 43.55052 77.44348 11832 ft 381 kts 56°
2026-04-24 03:00 43.56539 77.47392 12521 ft 383 kts 56°
2026-04-24 03:01 43.57820 77.50597 13018 ft 384 kts 71°
2026-04-24 03:01 43.58269 77.54236 13404 ft 389 kts 90°
2026-04-24 03:01 43.58228 77.57902 14125 ft 387 kts 92°
2026-04-24 03:01 43.58152 77.61641 14599 ft 393 kts 92°
2026-04-24 03:02 43.58072 77.65440 15000 ft 400 kts 92°
2026-04-24 03:02 43.57997 77.69311 15446 ft 406 kts 92°
2026-04-24 03:02 43.57929 77.73221 15939 ft 410 kts 92°
2026-04-24 03:02 43.57866 77.77165 16416 ft 414 kts 92°
2026-04-24 03:03 43.57806 77.81159 16878 ft 418 kts 92°
2026-04-24 03:03 43.57745 77.85202 17340 ft 423 kts 93°
2026-04-24 03:03 43.57683 77.89278 17781 ft 428 kts 93°
2026-04-24 03:03 43.57618 77.93403 18203 ft 432 kts 92°
2026-04-24 03:04 43.57551 77.97572 18581 ft 437 kts 93°
2026-04-24 03:04 43.57482 78.01783 18961 ft 441 kts 93°
2026-04-24 03:04 43.57411 78.06020 19346 ft 445 kts 93°
2026-04-24 03:04 43.57339 78.10308 19733 ft 449 kts 93°
2026-04-24 03:05 43.57267 78.14622 20117 ft 452 kts 93°
2026-04-24 03:05 43.57193 78.18975 20498 ft 456 kts 93°
2026-04-24 03:05 43.57118 78.23367 20866 ft 460 kts 93°
2026-04-24 03:05 43.57041 78.27793 21230 ft 463 kts 93°
2026-04-24 03:06 43.56963 78.32250 21591 ft 467 kts 93°
2026-04-24 03:06 43.56881 78.36747 21930 ft 470 kts 93°
2026-04-24 03:06 43.56796 78.41274 22248 ft 474 kts 93°
2026-04-24 03:06 43.56708 78.45831 22569 ft 478 kts 94°
2026-04-24 03:07 43.56617 78.50429 22896 ft 481 kts 94°
2026-04-24 03:07 43.56525 78.55053 23217 ft 484 kts 94°
2026-04-24 03:07 43.56430 78.59704 23519 ft 488 kts 94°
2026-04-24 03:07 43.56333 78.64342 23808 ft 490 kts 94°
2026-04-24 03:08 43.56232 78.69116 24102 ft 492 kts 94°
2026-04-24 03:08 43.56028 78.78513 24707 ft 495 kts 94°
2026-04-24 03:08 43.55920 78.83325 24997 ft 496 kts 94°
2026-04-24 03:09 43.55813 78.88029 25270 ft 498 kts 94°
2026-04-24 03:09 43.55702 78.92813 25550 ft 500 kts 94°
2026-04-24 03:09 43.55588 78.97613 25836 ft 501 kts 95°
2026-04-24 03:09 43.55472 79.02417 26107 ft 502 kts 95°
2026-04-24 03:10 43.55354 79.07238 26372 ft 503 kts 95°
2026-04-24 03:10 43.55235 79.12065 26638 ft 504 kts 95°
2026-04-24 03:10 43.55112 79.16903 26885 ft 506 kts 95°
2026-04-24 03:10 43.54987 79.21752 27116 ft 508 kts 95°
2026-04-24 03:11 43.54859 79.26633 27364 ft 509 kts 95°
2026-04-24 03:11 43.54731 79.31497 27701 ft 507 kts 95°
2026-04-24 03:11 43.54600 79.36341 28104 ft 505 kts 95°
2026-04-24 03:11 43.54467 79.41177 28504 ft 503 kts 96°
2026-04-24 03:12 43.54333 79.45986 28842 ft 502 kts 96°
2026-04-24 03:12 43.54196 79.50799 29169 ft 502 kts 96°
2026-04-24 03:12 43.54058 79.55614 29518 ft 501 kts 96°
2026-04-24 03:12 43.53917 79.60407 29863 ft 500 kts 96°
2026-04-24 03:13 43.53775 79.65202 30176 ft 500 kts 96°
2026-04-24 03:13 43.53630 79.70001 30421 ft 501 kts 96°
2026-04-24 03:13 43.53484 79.74792 30615 ft 502 kts 96°
2026-04-24 03:13 43.53337 79.79609 30813 ft 503 kts 96°
2026-04-24 03:14 43.53186 79.84442 31026 ft 504 kts 96°
2026-04-24 03:14 43.53031 79.89268 31252 ft 505 kts 96°
2026-04-24 03:14 43.52873 79.94100 31460 ft 505 kts 96°
2026-04-24 03:14 43.52713 79.98942 31671 ft 506 kts 97°
2026-04-24 03:15 43.52551 80.03792 31889 ft 506 kts 96°
2026-04-24 03:15 43.52389 80.08585 32105 ft 507 kts 97°
2026-04-24 03:15 43.52222 80.13433 32363 ft 506 kts 97°
2026-04-24 03:15 43.52056 80.18269 32640 ft 505 kts 97°
2026-04-24 03:16 43.51886 80.23104 32882 ft 505 kts 97°
2026-04-24 03:16 43.51714 80.27938 33069 ft 506 kts 97°
2026-04-24 03:16 43.51538 80.32801 33115 ft 508 kts 97°
2026-04-24 03:17 43.51242 80.40885 33118 ft 508 kts 97°
2026-04-24 03:17 43.50881 80.50592 33126 ft 507 kts 97°
2026-04-24 03:18 43.50511 80.60294 33129 ft 506 kts 97°
2026-04-24 03:18 43.49725 80.69831 33121 ft 495 kts 114°
2026-04-24 03:19 43.46529 80.77959 33171 ft 476 kts 140°
2026-04-24 03:19 43.44188 80.81153 33300 ft 472 kts 144°
2026-04-24 03:19 43.41746 80.84179 33440 ft 472 kts 146°
2026-04-24 03:19 43.39269 80.87161 33633 ft 473 kts 146°
2026-04-24 03:20 43.36800 80.90139 33923 ft 472 kts 146°
2026-04-24 03:20 43.34345 80.93138 34181 ft 470 kts 146°
2026-04-24 03:20 43.31917 80.96142 34413 ft 470 kts 145°
2026-04-24 03:20 43.29494 80.99165 34542 ft 471 kts 145°
2026-04-24 03:21 43.27071 81.02201 34668 ft 472 kts 145°
2026-04-24 03:21 43.24679 81.05202 34840 ft 472 kts 145°
2026-04-24 03:21 43.22259 81.08241 35015 ft 472 kts 145°
2026-04-24 03:21 43.19835 81.11282 35186 ft 471 kts 144°
2026-04-24 03:22 43.17419 81.14306 35236 ft 472 kts 144°
2026-04-24 03:22 43.12554 81.20379 35240 ft 473 kts 144°
2026-04-24 03:23 43.07696 81.26431 35229 ft 471 kts 144°
2026-04-24 03:23 43.02856 81.32447 35235 ft 469 kts 144°
2026-04-24 03:24 42.98028 81.38432 35239 ft 468 kts 144°
2026-04-24 03:24 42.93208 81.44395 35234 ft 467 kts 145°
2026-04-24 03:25 42.88390 81.50341 35230 ft 467 kts 144°
2026-04-24 03:25 42.83567 81.56281 35227 ft 467 kts 144°
2026-04-24 03:26 42.78744 81.62208 35225 ft 468 kts 144°
2026-04-24 03:26 42.73910 81.68136 35226 ft 467 kts 144°
2026-04-24 03:27 42.69076 81.74053 35220 ft 468 kts 145°
2026-04-24 03:27 42.64108 81.79720 35225 ft 466 kts 148°
2026-04-24 03:28 42.59033 81.85226 35213 ft 467 kts 148°
2026-04-24 03:28 42.53962 81.90763 35218 ft 469 kts 147°
2026-04-24 03:29 42.48888 81.96344 35219 ft 469 kts 147°
2026-04-24 03:29 42.43800 82.01944 35191 ft 470 kts 147°
2026-04-24 03:30 42.38717 82.07526 35177 ft 470 kts 147°
2026-04-24 03:30 42.33647 82.13077 35144 ft 467 kts 147°
2026-04-24 03:31 42.28644 82.18545 35161 ft 465 kts 147°
2026-04-24 03:31 42.23601 82.24044 35142 ft 466 kts 147°
2026-04-24 03:32 42.18543 82.29552 35119 ft 468 kts 147°
2026-04-24 03:32 42.13468 82.35069 35095 ft 469 kts 147°
2026-04-24 03:33 42.08374 82.40594 35076 ft 471 kts 147°
2026-04-24 03:33 42.03267 82.46123 35064 ft 472 kts 147°
2026-04-24 03:34 41.98141 82.51661 35052 ft 472 kts 147°
2026-04-24 03:34 41.93004 82.57197 35042 ft 473 kts 146°
2026-04-24 03:35 41.87872 82.62717 35042 ft 473 kts 146°
2026-04-24 03:35 41.82763 82.68200 35033 ft 473 kts 146°
2026-04-24 03:36 41.77632 82.73696 35043 ft 472 kts 147°
2026-04-24 03:36 41.72489 82.79193 35029 ft 472 kts 147°
2026-04-24 03:37 41.67525 82.84997 35015 ft 479 kts 136°
2026-04-24 03:37 41.63648 82.92324 35032 ft 485 kts 126°
2026-04-24 03:38 41.60059 82.99961 35019 ft 486 kts 126°
2026-04-24 03:38 41.56437 83.07584 35022 ft 485 kts 127°
2026-04-24 03:39 41.52775 83.15162 35025 ft 486 kts 127°
2026-04-24 03:39 41.49090 83.22725 35026 ft 486 kts 127°
2026-04-24 03:40 41.45416 83.30245 35024 ft 487 kts 127°
2026-04-24 03:40 41.41715 83.37805 35025 ft 487 kts 127°
2026-04-24 03:41 41.38009 83.45360 35025 ft 487 kts 127°
2026-04-24 03:41 41.34289 83.52928 35023 ft 488 kts 127°
2026-04-24 03:42 41.30569 83.60475 35030 ft 488 kts 127°
2026-04-24 03:42 41.26845 83.68011 35022 ft 488 kts 127°
2026-04-24 03:43 41.23105 83.75562 35021 ft 488 kts 127°
2026-04-24 03:43 41.19367 83.83090 35021 ft 488 kts 127°
2026-04-24 03:44 41.15626 83.90605 35023 ft 488 kts 127°
2026-04-24 03:44 41.11904 83.98066 35017 ft 488 kts 127°
2026-04-24 03:45 41.08150 84.05570 35012 ft 488 kts 127°
2026-04-24 03:45 41.04397 84.13055 35010 ft 488 kts 127°
2026-04-24 03:46 41.00633 84.20543 35008 ft 487 kts 127°
2026-04-24 03:46 40.96874 84.28003 35004 ft 487 kts 127°
2026-04-24 03:47 40.93110 84.35457 35003 ft 487 kts 127°
2026-04-24 03:47 40.89346 84.42892 35000 ft 487 kts 127°
2026-04-24 03:48 40.85576 84.50322 34996 ft 486 kts 127°
2026-04-24 03:48 40.81801 84.57744 34996 ft 487 kts 127°
2026-04-24 03:49 40.78049 84.65104 34992 ft 487 kts 127°
2026-04-24 03:49 40.74258 84.72524 34992 ft 487 kts 127°
2026-04-24 03:50 40.70465 84.79931 34994 ft 488 kts 127°
2026-04-24 03:50 40.66658 84.87346 34995 ft 488 kts 127°
2026-04-24 03:51 40.62843 84.94760 34981 ft 489 kts 128°
2026-04-24 03:51 40.59022 85.02169 34974 ft 489 kts 127°
2026-04-24 03:52 40.55193 85.09573 34979 ft 490 kts 128°
2026-04-24 03:52 40.51357 85.16975 34982 ft 490 kts 128°
2026-04-24 03:53 40.47513 85.24374 34979 ft 490 kts 128°
2026-04-24 03:53 40.43667 85.31761 34975 ft 490 kts 128°
2026-04-24 03:54 40.39836 85.39100 34972 ft 490 kts 128°
2026-04-24 03:54 40.35975 85.46480 34968 ft 490 kts 128°
2026-04-24 03:55 40.32118 85.53835 34974 ft 490 kts 128°
2026-04-24 03:55 40.28255 85.61184 34970 ft 489 kts 128°
2026-04-24 03:56 40.24394 85.68512 34964 ft 489 kts 128°
2026-04-24 03:56 40.20528 85.75832 34974 ft 489 kts 128°
2026-04-24 03:57 40.16659 85.83140 34968 ft 489 kts 128°
2026-04-24 03:57 40.12782 85.90447 34968 ft 489 kts 128°
2026-04-24 03:58 40.08909 85.97754 34968 ft 489 kts 126°
2026-04-24 03:58 40.05961 86.05796 34974 ft 494 kts 111°
2026-04-24 03:59 40.03719 86.14290 34968 ft 495 kts 110°
2026-04-24 03:59 40.01486 86.22772 34967 ft 495 kts 111°
2026-04-24 04:00 39.99194 86.31262 34964 ft 496 kts 111°
2026-04-24 04:00 39.96888 86.39670 34971 ft 496 kts 111°
2026-04-24 04:01 39.94551 86.48145 34964 ft 497 kts 111°
2026-04-24 04:01 39.92588 86.55245 34967 ft 497 kts 111°
2026-04-24 04:02 39.89859 86.65092 34972 ft 497 kts 111°
2026-04-24 04:02 39.87900 86.72140 34966 ft 498 kts 111°
2026-04-24 04:03 39.85542 86.80599 34964 ft 497 kts 111°
2026-04-24 04:03 39.83171 86.89075 34966 ft 497 kts 111°
2026-04-24 04:04 39.80798 86.97532 34960 ft 497 kts 111°
2026-04-24 04:04 39.78419 87.05978 34964 ft 497 kts 111°
2026-04-24 04:05 39.76037 87.14412 34965 ft 497 kts 111°
2026-04-24 04:05 39.73648 87.22844 34962 ft 497 kts 111°
2026-04-24 04:06 39.71250 87.31276 34960 ft 497 kts 111°
2026-04-24 04:06 39.68847 87.39701 34957 ft 497 kts 111°
2026-04-24 04:07 39.66438 87.48118 34955 ft 498 kts 111°
2026-04-24 04:07 39.64020 87.56540 34956 ft 498 kts 111°
2026-04-24 04:08 39.61597 87.64953 34953 ft 498 kts 111°
2026-04-24 04:08 39.59166 87.73369 34951 ft 498 kts 111°
2026-04-24 04:09 39.56745 87.81721 34946 ft 498 kts 111°
2026-04-24 04:09 39.54303 87.90119 34944 ft 498 kts 111°
2026-04-24 04:10 39.51855 87.98512 34942 ft 498 kts 111°
2026-04-24 04:10 39.49401 88.06896 34936 ft 498 kts 112°
2026-04-24 04:11 39.45710 88.19461 34930 ft 498 kts 112°
2026-04-24 04:11 39.43239 88.27840 34929 ft 498 kts 112°
2026-04-24 04:12 39.40761 88.36213 34926 ft 498 kts 112°
2026-04-24 04:12 39.38277 88.44584 34931 ft 498 kts 112°
2026-04-24 04:13 39.35788 88.52942 34930 ft 498 kts 112°
2026-04-24 04:13 39.33294 88.61296 34928 ft 499 kts 112°
2026-04-24 04:14 39.30791 88.69650 34931 ft 499 kts 112°
2026-04-24 04:14 39.28282 88.77997 34936 ft 499 kts 112°
2026-04-24 04:15 39.25767 88.86342 34936 ft 499 kts 112°
2026-04-24 04:15 39.23244 88.94685 34939 ft 499 kts 112°
2026-04-24 04:16 39.20716 89.03020 34942 ft 499 kts 112°
2026-04-24 04:16 39.18183 89.11346 34949 ft 499 kts 112°
2026-04-24 04:17 39.15645 89.19662 34956 ft 499 kts 112°
2026-04-24 04:17 39.13100 89.27979 34960 ft 499 kts 112°
2026-04-24 04:18 39.10551 89.36279 34977 ft 499 kts 112°
2026-04-24 04:18 39.08011 89.44529 34989 ft 499 kts 112°
2026-04-24 04:19 39.05452 89.52814 35003 ft 499 kts 112°
2026-04-24 04:19 39.02883 89.61105 35013 ft 499 kts 112°
2026-04-24 04:20 39.00310 89.69386 35031 ft 499 kts 112°
2026-04-24 04:20 38.97731 89.77659 35046 ft 498 kts 112°
2026-04-24 04:21 38.95149 89.85919 35064 ft 498 kts 112°
2026-04-24 04:21 38.92560 89.94175 35067 ft 498 kts 112°
2026-04-24 04:22 38.89967 90.02420 35071 ft 499 kts 112°
2026-04-24 04:22 38.87361 90.10682 35089 ft 500 kts 112°
2026-04-24 04:23 38.84746 90.18949 35088 ft 501 kts 112°
2026-04-24 04:23 38.82117 90.27235 35104 ft 501 kts 112°
2026-04-24 04:24 38.79502 90.35452 35110 ft 501 kts 112°
2026-04-24 04:24 38.76852 90.43718 35119 ft 501 kts 112°
2026-04-24 04:25 38.74190 90.51981 35126 ft 502 kts 112°
2026-04-24 04:25 38.71522 90.60246 35131 ft 503 kts 112°
2026-04-24 04:26 38.68847 90.68518 35136 ft 504 kts 112°
2026-04-24 04:26 38.66331 90.76886 35137 ft 504 kts 109°
2026-04-24 04:27 38.64019 90.85354 35122 ft 504 kts 108°
2026-04-24 04:27 38.61710 90.93815 35128 ft 504 kts 108°
2026-04-24 04:28 38.59363 91.02251 35129 ft 503 kts 109°
2026-04-24 04:28 38.56998 91.10661 35127 ft 503 kts 109°
2026-04-24 04:29 38.54620 91.19076 35130 ft 503 kts 109°
2026-04-24 04:29 38.52242 91.27476 35124 ft 503 kts 109°
2026-04-24 04:30 38.49860 91.35863 35128 ft 503 kts 109°
2026-04-24 04:30 38.47473 91.44246 35127 ft 503 kts 109°
2026-04-24 04:31 38.45091 91.52585 35124 ft 503 kts 109°
2026-04-24 04:31 38.42687 91.60970 35120 ft 504 kts 109°
2026-04-24 04:32 38.40277 91.69354 35120 ft 504 kts 108°
2026-04-24 04:32 38.37857 91.77745 35124 ft 504 kts 108°
2026-04-24 04:33 38.35430 91.86132 35124 ft 505 kts 108°
2026-04-24 04:33 38.32994 91.94524 35123 ft 505 kts 108°
2026-04-24 04:34 38.30550 92.02920 35122 ft 506 kts 108°
2026-04-24 04:34 38.28100 92.11309 35121 ft 506 kts 108°
2026-04-24 04:35 38.25641 92.19703 35122 ft 506 kts 108°
2026-04-24 04:35 38.23171 92.28107 35119 ft 506 kts 108°
2026-04-24 04:36 38.20699 92.36491 35121 ft 507 kts 108°
2026-04-24 04:36 38.18236 92.44822 35122 ft 507 kts 108°
2026-04-24 04:37 38.15634 92.53153 35124 ft 507 kts 112°
2026-04-24 04:37 38.12634 92.61270 35125 ft 508 kts 114°
2026-04-24 04:38 38.09556 92.69336 35122 ft 508 kts 114°
2026-04-24 04:38 38.06495 92.77430 35118 ft 508 kts 113°
2026-04-24 04:39 38.03460 92.85519 35121 ft 508 kts 113°
2026-04-24 04:39 38.00430 92.93604 35117 ft 508 kts 113°
2026-04-24 04:40 37.97393 93.01685 35120 ft 508 kts 113°
2026-04-24 04:40 37.94347 93.09763 35115 ft 508 kts 113°
2026-04-24 04:41 37.91291 93.17843 35118 ft 508 kts 113°
2026-04-24 04:41 37.88229 93.25916 35115 ft 508 kts 113°
2026-04-24 04:42 37.85163 93.33981 35117 ft 508 kts 113°
2026-04-24 04:42 37.82094 93.42030 35113 ft 508 kts 113°
2026-04-24 04:43 37.79017 93.50080 35115 ft 508 kts 114°
2026-04-24 04:43 37.75931 93.58133 35113 ft 509 kts 114°
2026-04-24 04:44 37.72839 93.66180 35114 ft 509 kts 114°
2026-04-24 04:44 37.69764 93.74163 35118 ft 509 kts 114°
2026-04-24 04:45 37.66659 93.82203 35116 ft 509 kts 114°
2026-04-24 04:45 37.63551 93.90231 35117 ft 509 kts 114°
2026-04-24 04:46 37.60433 93.98263 35117 ft 510 kts 114°
2026-04-24 04:46 37.57835 94.04938 35113 ft 510 kts 114°
2026-04-24 04:47 37.54708 94.12955 35120 ft 510 kts 114°
2026-04-24 04:47 37.51572 94.20974 35118 ft 510 kts 114°
2026-04-24 04:48 37.48432 94.28983 35120 ft 510 kts 114°
2026-04-24 04:48 37.45288 94.36984 35118 ft 510 kts 114°
2026-04-24 04:49 37.42135 94.44982 35117 ft 510 kts 114°
2026-04-24 04:49 37.38980 94.52968 35118 ft 510 kts 114°
2026-04-24 04:50 37.35815 94.60959 35115 ft 510 kts 114°
2026-04-24 04:50 37.32649 94.68933 35119 ft 510 kts 114°
2026-04-24 04:51 37.29479 94.76895 35120 ft 510 kts 114°
2026-04-24 04:51 37.26300 94.84861 35118 ft 510 kts 114°
2026-04-24 04:52 37.23139 94.92760 35121 ft 510 kts 114°
2026-04-24 04:52 37.19951 95.00708 35123 ft 510 kts 114°
2026-04-24 04:53 37.16742 95.08690 35125 ft 509 kts 114°
2026-04-24 04:53 37.13568 95.16563 35125 ft 509 kts 114°
2026-04-24 04:54 37.10370 95.24477 35127 ft 509 kts 114°
2026-04-24 04:54 37.07144 95.32439 35122 ft 509 kts 115°
2026-04-24 04:55 37.03954 95.40293 35126 ft 509 kts 115°
2026-04-24 04:55 37.00741 95.48187 35123 ft 509 kts 115°
2026-04-24 04:56 36.97567 95.56092 35122 ft 509 kts 114°
2026-04-24 04:56 36.94454 95.64037 35120 ft 508 kts 114°
2026-04-24 04:57 36.91335 95.71977 35116 ft 509 kts 114°
2026-04-24 04:57 36.88197 95.79904 35119 ft 508 kts 114°
2026-04-24 04:58 36.85055 95.87811 35116 ft 508 kts 114°
2026-04-24 04:58 36.81906 95.95718 35125 ft 508 kts 114°
2026-04-24 04:59 36.78755 96.03613 35123 ft 508 kts 114°
2026-04-24 04:59 36.75615 96.11510 35128 ft 508 kts 114°
2026-04-24 05:00 36.72502 96.19421 35128 ft 508 kts 114°
2026-04-24 05:00 36.69387 96.27319 35124 ft 508 kts 114°
2026-04-24 05:01 36.66256 96.35221 35127 ft 508 kts 114°
2026-04-24 05:01 36.63122 96.43105 35131 ft 508 kts 114°
2026-04-24 05:02 36.59978 96.50994 35134 ft 509 kts 114°
2026-04-24 05:02 36.56833 96.58870 35135 ft 509 kts 114°
2026-04-24 05:03 36.53707 96.66773 35135 ft 509 kts 114°
2026-04-24 05:03 36.50603 96.74687 35133 ft 510 kts 114°
2026-04-24 05:04 36.47487 96.82605 35137 ft 510 kts 114°
2026-04-24 05:04 36.44378 96.90470 35141 ft 510 kts 114°
2026-04-24 05:05 36.41240 96.98380 35142 ft 511 kts 114°
2026-04-24 05:05 36.38093 97.06295 35143 ft 511 kts 114°
2026-04-24 05:06 36.34937 97.14214 35144 ft 512 kts 114°
2026-04-24 05:06 36.31777 97.22124 35144 ft 512 kts 114°
2026-04-24 05:07 36.28605 97.30043 35143 ft 513 kts 114°
2026-04-24 05:07 36.25429 97.37955 35141 ft 513 kts 114°
2026-04-24 05:08 36.22244 97.45868 35150 ft 513 kts 114°
2026-04-24 05:08 36.19053 97.53777 35150 ft 514 kts 114°
2026-04-24 05:09 36.15875 97.61636 35169 ft 514 kts 114°
2026-04-24 05:09 36.12724 97.69580 35171 ft 514 kts 112°
2026-04-24 05:10 36.09657 97.77569 35181 ft 514 kts 112°
2026-04-24 05:10 36.06591 97.85557 35191 ft 515 kts 112°
2026-04-24 05:11 36.03504 97.93534 35202 ft 515 kts 112°
2026-04-24 05:11 36.00403 98.01499 35220 ft 515 kts 112°
2026-04-24 05:12 35.97292 98.09465 35232 ft 515 kts 112°
2026-04-24 05:12 35.94176 98.17426 35246 ft 514 kts 112°
2026-04-24 05:13 35.89501 98.29339 35238 ft 514 kts 112°
2026-04-24 05:14 35.86378 98.37272 35245 ft 514 kts 112°
2026-04-24 05:14 35.83248 98.45202 35255 ft 515 kts 112°
2026-04-24 05:15 35.80109 98.53137 35261 ft 516 kts 112°
2026-04-24 05:15 35.76961 98.61075 35269 ft 516 kts 112°
2026-04-24 05:16 35.73805 98.69013 35268 ft 516 kts 112°
2026-04-24 05:16 35.70646 98.76939 35271 ft 516 kts 113°
2026-04-24 05:17 35.67484 98.84854 35271 ft 516 kts 112°
2026-04-24 05:17 35.64321 98.92754 35277 ft 515 kts 113°
2026-04-24 05:18 35.61170 99.00603 35270 ft 515 kts 113°
2026-04-24 05:18 35.57976 99.08538 35255 ft 515 kts 113°
2026-04-24 05:19 35.54825 99.16351 35259 ft 514 kts 113°
2026-04-24 05:19 35.51651 99.24199 35252 ft 513 kts 113°
2026-04-24 05:20 35.48470 99.32050 35257 ft 513 kts 113°
2026-04-24 05:20 35.45283 99.39896 35247 ft 514 kts 113°
2026-04-24 05:21 35.42090 99.47737 35221 ft 514 kts 113°
2026-04-24 05:21 35.38884 99.55588 35219 ft 515 kts 113°
2026-04-24 05:22 35.35674 99.63430 35208 ft 515 kts 113°
2026-04-24 05:22 35.32461 99.71265 35183 ft 515 kts 113°
2026-04-24 05:23 35.29247 99.79084 35191 ft 514 kts 113°
2026-04-24 05:23 35.26025 99.86901 35177 ft 515 kts 113°
2026-04-24 05:24 35.22795 99.94723 35166 ft 515 kts 113°
2026-04-24 05:24 35.19558 100.02542 35176 ft 516 kts 113°
2026-04-24 05:25 35.16307 100.10374 35164 ft 517 kts 113°
2026-04-24 05:25 35.13054 100.18194 35166 ft 517 kts 113°
2026-04-24 05:26 35.09795 100.26008 35168 ft 515 kts 114°
2026-04-24 05:26 35.06538 100.33800 35181 ft 515 kts 113°
2026-04-24 05:26 35.04906 100.37699 35315 ft 517 kts 114°
2026-04-24 05:27 35.03265 100.41617 35461 ft 519 kts 114°
2026-04-24 05:27 35.01622 100.45532 35692 ft 518 kts 114°
2026-04-24 05:27 34.99980 100.49438 35950 ft 517 kts 114°
2026-04-24 05:27 34.98339 100.53338 36179 ft 517 kts 114°
2026-04-24 05:28 34.96700 100.57228 36460 ft 514 kts 114°
2026-04-24 05:28 34.95071 100.61090 36705 ft 512 kts 114°
2026-04-24 05:28 34.93438 100.64961 36791 ft 515 kts 114°
2026-04-24 05:29 34.90153 100.72723 37121 ft 513 kts 114°
2026-04-24 05:29 34.86898 100.80406 37202 ft 510 kts 114°
2026-04-24 05:30 34.83626 100.88118 37192 ft 514 kts 114°
2026-04-24 05:30 34.80359 100.95796 37214 ft 516 kts 114°
2026-04-24 05:31 34.77044 101.03562 37202 ft 516 kts 114°
2026-04-24 05:31 34.73744 101.11269 37189 ft 511 kts 114°
2026-04-24 05:32 34.70474 101.18898 37190 ft 507 kts 114°
2026-04-24 05:32 34.67213 101.26493 37186 ft 507 kts 114°
2026-04-24 05:33 34.63930 101.34123 37192 ft 512 kts 114°
2026-04-24 05:33 34.61177 101.40508 37189 ft 515 kts 114°
2026-04-24 05:34 34.56170 101.52079 37180 ft 517 kts 114°
2026-04-24 05:34 34.52816 101.59808 37180 ft 518 kts 114°
2026-04-24 05:35 34.49456 101.67534 37193 ft 517 kts 115°
2026-04-24 05:35 34.46101 101.75233 37204 ft 516 kts 114°
2026-04-24 05:36 34.42748 101.82910 37185 ft 514 kts 115°
2026-04-24 05:36 34.39401 101.90555 37206 ft 513 kts 115°
2026-04-24 05:37 34.36063 101.98165 37214 ft 512 kts 115°
2026-04-24 05:37 34.32717 102.05778 37201 ft 512 kts 115°
2026-04-24 05:38 34.29369 102.13377 37200 ft 512 kts 115°
2026-04-24 05:38 34.26019 102.20961 37192 ft 511 kts 115°
2026-04-24 05:39 34.22669 102.28529 37186 ft 510 kts 115°
2026-04-24 05:39 34.19326 102.36070 37181 ft 509 kts 115°
2026-04-24 05:40 34.16057 102.43596 37194 ft 508 kts 114°
2026-04-24 05:40 34.12832 102.51197 37184 ft 509 kts 114°
2026-04-24 05:41 34.09600 102.58798 37189 ft 510 kts 114°
2026-04-24 05:41 34.06323 102.66455 37187 ft 511 kts 114°
2026-04-24 05:42 34.03045 102.74074 37188 ft 512 kts 114°
2026-04-24 05:42 33.99782 102.81642 37183 ft 512 kts 114°
2026-04-24 05:43 33.96493 102.89254 37186 ft 512 kts 114°
2026-04-24 05:43 33.93198 102.96868 37189 ft 513 kts 114°
2026-04-24 05:44 33.89894 103.04483 37178 ft 513 kts 114°
2026-04-24 05:44 33.86583 103.12101 37184 ft 513 kts 114°
2026-04-24 05:45 33.83266 103.19714 37178 ft 514 kts 114°
2026-04-24 05:45 33.79943 103.27323 37181 ft 514 kts 114°
2026-04-24 05:46 33.76615 103.34929 37192 ft 514 kts 114°
2026-04-24 05:46 33.73284 103.42528 37160 ft 511 kts 114°
2026-04-24 05:47 33.69976 103.50049 37173 ft 508 kts 115°
2026-04-24 05:47 33.66670 103.57555 37179 ft 510 kts 115°
2026-04-24 05:48 33.63342 103.65098 37159 ft 513 kts 115°
2026-04-24 05:48 33.59997 103.72658 37170 ft 513 kts 115°
2026-04-24 05:49 33.56659 103.80185 37174 ft 515 kts 115°
2026-04-24 05:49 33.53288 103.87777 37147 ft 517 kts 115°
2026-04-24 05:50 33.49905 103.95376 37208 ft 520 kts 115°
2026-04-24 05:50 33.46498 104.03009 37223 ft 516 kts 115°
2026-04-24 05:51 33.43122 104.10557 37146 ft 511 kts 115°
2026-04-24 05:51 33.39768 104.18046 37136 ft 509 kts 115°
2026-04-24 05:52 33.35937 104.25104 37163 ft 508 kts 133°
2026-04-24 05:52 33.33314 104.27960 37153 ft 512 kts 144°
2026-04-24 05:52 33.30303 104.30229 37150 ft 512 kts 157°
2026-04-24 05:53 33.23760 104.33680 37149 ft 516 kts 160°
2026-04-24 05:53 33.17133 104.37079 37135 ft 519 kts 159°
2026-04-24 05:54 33.10528 104.40569 37148 ft 519 kts 158°
2026-04-24 05:54 33.03958 104.44089 37165 ft 514 kts 159°
2026-04-24 05:55 32.97456 104.47564 37165 ft 510 kts 159°
2026-04-24 05:55 32.91035 104.50982 37169 ft 506 kts 159°
2026-04-24 05:56 32.84549 104.54425 37181 ft 513 kts 159°
2026-04-24 05:56 32.77922 104.57742 37149 ft 517 kts 167°
2026-04-24 05:57 32.70937 104.59232 37144 ft 505 kts 184°
2026-04-24 05:57 32.63920 104.59413 37134 ft 504 kts 185°
2026-04-24 05:58 32.56914 104.59662 37141 ft 503 kts 183°
2026-04-24 05:58 32.49945 104.59992 37167 ft 500 kts 183°
2026-04-24 05:59 32.43008 104.60301 37148 ft 498 kts 183°
2026-04-24 05:59 32.36129 104.60631 37149 ft 497 kts 183°
2026-04-24 06:00 32.29224 104.61018 37147 ft 497 kts 182°
2026-04-24 06:00 32.22319 104.61406 37144 ft 497 kts 183°
2026-04-24 06:01 32.15411 104.61784 37132 ft 497 kts 182°
2026-04-24 06:01 32.08497 104.62158 37126 ft 498 kts 183°
2026-04-24 06:02 32.01570 104.62532 37131 ft 499 kts 182°
2026-04-24 06:02 31.94627 104.62907 37121 ft 500 kts 182°
2026-04-24 06:03 31.87678 104.63282 37125 ft 500 kts 182°
2026-04-24 06:03 31.80733 104.63657 37111 ft 498 kts 182°
2026-04-24 06:04 31.73817 104.64000 37128 ft 498 kts 183°
2026-04-24 06:04 31.66891 104.64268 37131 ft 498 kts 184°
2026-04-24 06:05 31.59959 104.64529 37114 ft 498 kts 184°
2026-04-24 06:05 31.53030 104.64799 37117 ft 498 kts 184°
2026-04-24 06:06 31.46103 104.65075 37111 ft 498 kts 183°
2026-04-24 06:06 31.39189 104.65350 37113 ft 497 kts 184°
2026-04-24 06:07 31.32273 104.65623 37111 ft 497 kts 183°
2026-04-24 06:07 31.25370 104.65895 37113 ft 496 kts 183°
2026-04-24 06:08 31.18471 104.66167 37118 ft 495 kts 183°
2026-04-24 06:08 31.11628 104.66435 37111 ft 495 kts 183°
2026-04-24 06:09 31.04746 104.66710 37116 ft 495 kts 182°
2026-04-24 06:09 30.97819 104.67415 37118 ft 497 kts 179°
2026-04-24 06:10 30.90937 104.68296 37119 ft 496 kts 179°
2026-04-24 06:11 30.80636 104.69471 37120 ft 495 kts 179°
2026-04-24 06:11 30.73786 104.70243 37127 ft 495 kts 180°
2026-04-24 06:12 30.66975 104.71012 37130 ft 495 kts 180°
2026-04-24 06:12 30.60120 104.71783 37134 ft 494 kts 179°
2026-04-24 06:13 30.53268 104.72553 37134 ft 494 kts 180°
2026-04-24 06:13 30.46411 104.73313 37129 ft 494 kts 180°
2026-04-24 06:14 30.39567 104.74068 37132 ft 494 kts 180°
2026-04-24 06:14 30.32724 104.74822 37130 ft 494 kts 180°
2026-04-24 06:15 30.25879 104.75575 37130 ft 494 kts 180°
2026-04-24 06:15 30.19034 104.76328 37138 ft 494 kts 180°
2026-04-24 06:16 30.12181 104.77079 37138 ft 495 kts 180°
2026-04-24 06:16 30.05325 104.77830 37119 ft 495 kts 180°
2026-04-24 06:17 29.98467 104.78582 37123 ft 495 kts 180°
2026-04-24 06:17 29.92778 104.79217 37118 ft 495 kts 180°
2026-04-24 06:18 29.85902 104.79988 37119 ft 495 kts 180°
2026-04-24 06:18 29.79048 104.80752 37118 ft 495 kts 180°
2026-04-24 06:19 29.72185 104.81515 37115 ft 495 kts 180°
2026-04-24 06:19 29.65325 104.82276 37117 ft 495 kts 180°
2026-04-24 06:20 29.58460 104.83036 37115 ft 495 kts 180°
2026-04-24 06:20 29.51598 104.83795 37109 ft 495 kts 180°
2026-04-24 06:21 29.44793 104.84546 37110 ft 495 kts 180°
2026-04-24 06:21 29.37944 104.85301 37104 ft 494 kts 180°
2026-04-24 06:22 29.31154 104.86816 37099 ft 504 kts 164°
2026-04-24 06:22 29.24704 104.90069 37102 ft 507 kts 159°
2026-04-24 06:23 29.18289 104.93440 37103 ft 506 kts 160°
2026-04-24 06:23 29.11854 104.96684 37114 ft 505 kts 160°
2026-04-24 06:24 29.05427 104.99910 37110 ft 505 kts 160°
2026-04-24 06:24 28.98992 105.03147 37107 ft 504 kts 160°
2026-04-24 06:25 28.92574 105.06371 37104 ft 504 kts 160°
2026-04-24 06:25 28.86165 105.09597 37106 ft 503 kts 160°
2026-04-24 06:26 28.79756 105.12819 37103 ft 503 kts 160°
2026-04-24 06:26 28.73437 105.16286 37101 ft 505 kts 156°
2026-04-24 06:27 28.67250 105.20091 37099 ft 505 kts 155°
2026-04-24 06:27 28.61111 105.23883 37102 ft 505 kts 155°
2026-04-24 06:28 28.54915 105.27648 37099 ft 505 kts 156°
2026-04-24 06:28 28.48677 105.31404 37103 ft 505 kts 156°
2026-04-24 06:29 28.42463 105.35139 37093 ft 505 kts 156°
2026-04-24 06:29 28.36291 105.38848 37104 ft 505 kts 156°
2026-04-24 06:30 28.30077 105.42577 37110 ft 505 kts 156°
2026-04-24 06:30 28.23871 105.46299 37119 ft 505 kts 156°
2026-04-24 06:31 28.17651 105.50023 37122 ft 505 kts 156°
2026-04-24 06:31 28.11434 105.53738 37142 ft 506 kts 156°
2026-04-24 06:32 28.05057 105.57121 37151 ft 498 kts 167°
2026-04-24 06:32 28.01773 105.58094 37136 ft 490 kts 178°
2026-04-24 06:32 27.98370 105.58586 37172 ft 486 kts 180°
2026-04-24 06:33 27.91688 105.59517 37143 ft 488 kts 179°
2026-04-24 06:33 27.84961 105.60592 37168 ft 488 kts 178°
2026-04-24 06:34 27.78304 105.62379 37164 ft 500 kts 163°
2026-04-24 06:34 27.72099 105.66074 37170 ft 506 kts 155°
2026-04-24 06:35 27.65934 105.69904 37181 ft 504 kts 158°
2026-04-24 06:35 27.59627 105.73322 37182 ft 503 kts 160°
2026-04-24 06:36 27.53280 105.76653 37185 ft 503 kts 160°
2026-04-24 06:36 27.46957 105.80026 37198 ft 502 kts 160°
2026-04-24 06:37 27.40662 105.83421 37206 ft 501 kts 160°
2026-04-24 06:37 27.34368 105.86816 37191 ft 501 kts 160°
2026-04-24 06:38 27.28077 105.90201 37203 ft 501 kts 160°
2026-04-24 06:38 27.21791 105.93577 37205 ft 500 kts 160°
2026-04-24 06:39 27.15549 105.96924 37204 ft 500 kts 160°
2026-04-24 06:39 27.09266 106.00291 37201 ft 500 kts 160°
2026-04-24 06:40 27.03386 106.04707 37204 ft 513 kts 141°
2026-04-24 06:40 26.98734 106.10778 37215 ft 519 kts 129°
2026-04-24 06:41 26.94461 106.17311 37208 ft 520 kts 129°
2026-04-24 06:41 26.90160 106.23819 37207 ft 519 kts 130°
2026-04-24 06:42 26.85811 106.30275 37211 ft 519 kts 130°
2026-04-24 06:42 26.81436 106.36722 37213 ft 520 kts 130°
2026-04-24 06:43 26.77060 106.43165 37213 ft 520 kts 130°
2026-04-24 06:43 26.72678 106.49617 37215 ft 520 kts 130°
2026-04-24 06:44 26.68300 106.56054 37238 ft 520 kts 131°
2026-04-24 06:44 26.63912 106.62498 37241 ft 520 kts 131°
2026-04-24 06:45 26.59522 106.68933 37259 ft 520 kts 131°
2026-04-24 06:45 26.55131 106.75363 37252 ft 521 kts 131°
2026-04-24 06:46 26.51465 106.82373 37250 ft 527 kts 113°
2026-04-24 06:46 26.49319 106.90208 37260 ft 528 kts 105°
2026-04-24 06:47 26.47338 106.98043 37249 ft 528 kts 107°
2026-04-24 06:47 26.45216 107.05937 37246 ft 528 kts 107°
2026-04-24 06:48 26.43150 107.13739 37235 ft 528 kts 107°
2026-04-24 06:48 26.41078 107.21651 37236 ft 528 kts 107°
2026-04-24 06:49 26.39021 107.29466 37209 ft 529 kts 107°
2026-04-24 06:49 26.36936 107.37342 37205 ft 528 kts 107°
2026-04-24 06:50 26.34852 107.45195 37219 ft 528 kts 107°
2026-04-24 06:50 26.32760 107.53057 37219 ft 528 kts 108°
2026-04-24 06:51 26.30662 107.60922 37192 ft 529 kts 108°
2026-04-24 06:51 26.28560 107.68784 37189 ft 530 kts 108°
2026-04-24 06:52 26.26451 107.76653 37195 ft 530 kts 108°
2026-04-24 06:52 26.24350 107.84474 37193 ft 530 kts 108°
2026-04-24 06:53 26.22242 107.92347 37195 ft 531 kts 108°
2026-04-24 06:53 26.20164 108.00257 37177 ft 532 kts 108°
2026-04-24 06:54 26.18085 108.08159 37183 ft 531 kts 108°
2026-04-24 06:54 26.15999 108.16039 37183 ft 531 kts 108°
2026-04-24 06:55 26.13906 108.23922 37190 ft 531 kts 108°
2026-04-24 06:55 26.11802 108.31824 37163 ft 531 kts 109°
2026-04-24 06:56 26.09702 108.39700 37166 ft 531 kts 109°
2026-04-24 06:56 26.07609 108.47568 37162 ft 530 kts 109°
2026-04-24 06:57 26.05515 108.55437 37142 ft 530 kts 109°
2026-04-24 06:57 26.03424 108.63277 37140 ft 529 kts 109°
2026-04-24 06:58 26.01324 108.71125 37146 ft 529 kts 109°
2026-04-24 06:58 25.99248 108.78955 37153 ft 529 kts 109°
2026-04-24 06:59 25.97191 108.86813 37155 ft 530 kts 109°
2026-04-24 06:59 25.95122 108.94679 37140 ft 531 kts 110°
2026-04-24 07:00 25.93056 109.02503 37130 ft 531 kts 110°
2026-04-24 07:00 25.90990 109.10367 37143 ft 529 kts 110°
2026-04-24 07:01 25.88944 109.18229 37141 ft 531 kts 110°
2026-04-24 07:01 25.86884 109.26123 37136 ft 533 kts 110°
2026-04-24 07:02 25.84811 109.34034 37120 ft 535 kts 110°
2026-04-24 07:02 25.82726 109.41958 37115 ft 534 kts 110°
2026-04-24 07:03 25.80641 109.49876 37127 ft 535 kts 111°
2026-04-24 07:03 25.78285 109.57679 37117 ft 528 kts 122°
2026-04-24 07:04 25.75160 109.63387 37121 ft 515 kts 136°
2026-04-24 07:04 25.71990 109.67263 37117 ft 502 kts 146°
2026-04-24 07:04 25.70313 109.69015 37137 ft 502 kts 147°
2026-04-24 07:05 25.65172 109.74313 37121 ft 506 kts 147°
2026-04-24 07:05 25.60035 109.79663 37103 ft 508 kts 147°
2026-04-24 07:06 25.54897 109.85075 37110 ft 511 kts 147°
2026-04-24 07:06 25.49772 109.90485 37045 ft 506 kts 147°
2026-04-24 07:07 25.44700 109.95830 37114 ft 503 kts 147°
2026-04-24 07:07 25.37101 110.03812 37122 ft 500 kts 148°
2026-04-24 07:08 25.32043 110.09118 37119 ft 501 kts 148°
2026-04-24 07:08 25.26971 110.14428 37117 ft 503 kts 148°
2026-04-24 07:09 25.21916 110.19718 37124 ft 505 kts 148°
2026-04-24 07:09 25.16783 110.25114 37113 ft 507 kts 148°
2026-04-24 07:10 25.11684 110.30519 37117 ft 509 kts 148°
2026-04-24 07:10 25.06613 110.35885 37118 ft 509 kts 148°
2026-04-24 07:11 25.01488 110.41292 37092 ft 509 kts 148°
2026-04-24 07:11 24.96386 110.46687 37135 ft 507 kts 148°
2026-04-24 07:12 24.91307 110.52067 37116 ft 506 kts 147°
2026-04-24 07:12 24.86252 110.57417 37100 ft 503 kts 148°
2026-04-24 07:13 24.81197 110.62751 37116 ft 503 kts 148°
2026-04-24 07:13 24.76110 110.68111 37096 ft 503 kts 148°
2026-04-24 07:14 24.71070 110.73430 37106 ft 504 kts 146°
2026-04-24 07:14 24.68815 110.76471 37091 ft 524 kts 131°
2026-04-24 07:14 24.67161 110.80055 37104 ft 539 kts 118°
2026-04-24 07:15 24.66214 110.84074 37099 ft 550 kts 102°
2026-04-24 07:15 24.65838 110.88317 37116 ft 550 kts 99°
2026-04-24 07:15 24.65308 110.96703 37119 ft 549 kts 99°
2026-04-24 07:16 24.64698 111.04997 37095 ft 546 kts 100°
2026-04-24 07:16 24.63979 111.13293 37104 ft 545 kts 101°
2026-04-24 07:17 24.63244 111.21570 37112 ft 544 kts 101°
2026-04-24 07:17 24.62522 111.29863 37111 ft 546 kts 101°
2026-04-24 07:18 24.61788 111.38182 37116 ft 547 kts 101°
2026-04-24 07:18 24.61041 111.46512 37110 ft 549 kts 101°
2026-04-24 07:19 24.60282 111.54888 37116 ft 551 kts 101°
2026-04-24 07:19 24.59509 111.63359 37103 ft 554 kts 101°
2026-04-24 07:20 24.58744 111.71784 37109 ft 555 kts 101°
2026-04-24 07:20 24.57978 111.80154 37096 ft 554 kts 101°
2026-04-24 07:21 24.57203 111.88555 37103 ft 552 kts 101°
2026-04-24 07:21 24.56424 111.96939 37106 ft 551 kts 101°
2026-04-24 07:22 24.55642 112.05303 37113 ft 551 kts 101°
2026-04-24 07:22 24.54853 112.13677 37106 ft 551 kts 101°
2026-04-24 07:23 24.54063 112.22028 37080 ft 546 kts 101°
2026-04-24 07:23 24.53277 112.30297 37109 ft 543 kts 101°
2026-04-24 07:24 24.52484 112.38547 37107 ft 542 kts 101°
2026-04-24 07:24 24.51687 112.46791 37117 ft 543 kts 101°
2026-04-24 07:25 24.50885 112.55056 37116 ft 545 kts 101°
2026-04-24 07:25 24.50077 112.63343 37108 ft 547 kts 101°
2026-04-24 07:26 24.49261 112.71659 37107 ft 549 kts 101°
2026-04-24 07:26 24.48442 112.80025 37099 ft 553 kts 101°
2026-04-24 07:27 24.47627 112.88417 37112 ft 554 kts 101°
2026-04-24 07:27 24.45875 112.96501 37123 ft 533 kts 127°
2026-04-24 07:28 24.43853 112.99812 37123 ft 513 kts 143°
2026-04-24 07:28 24.41324 113.02473 36911 ft 501 kts 154°
2026-04-24 07:28 24.38449 113.04567 36276 ft 488 kts 165°
2026-04-24 07:28 24.35404 113.05992 35701 ft 465 kts 174°
2026-04-24 07:29 24.32325 113.06943 34999 ft 456 kts 179°
2026-04-24 07:29 24.29224 113.07690 34223 ft 457 kts 181°
2026-04-24 07:29 24.26090 113.08411 33278 ft 464 kts 180°
2026-04-24 07:29 24.22916 113.09190 32376 ft 469 kts 178°
2026-04-24 07:30 24.19738 113.10031 31604 ft 471 kts 177°
2026-04-24 07:30 24.16556 113.10903 30898 ft 471 kts 176°
2026-04-24 07:30 24.13381 113.11776 30220 ft 469 kts 176°
2026-04-24 07:30 24.10195 113.12641 29459 ft 466 kts 176°
2026-04-24 07:31 24.07033 113.13494 28610 ft 463 kts 176°
2026-04-24 07:31 24.03937 113.14332 27610 ft 455 kts 175°
2026-04-24 07:31 24.00886 113.15151 26552 ft 450 kts 175°
2026-04-24 07:31 23.97866 113.15957 25826 ft 439 kts 175°
2026-04-24 07:32 23.94940 113.16739 25176 ft 426 kts 175°
2026-04-24 07:32 23.92104 113.17495 24592 ft 414 kts 175°
2026-04-24 07:32 23.89370 113.18220 24032 ft 404 kts 175°
2026-04-24 07:32 23.86666 113.18935 23482 ft 398 kts 175°
2026-04-24 07:33 23.83926 113.19652 22824 ft 404 kts 175°
2026-04-24 07:33 23.81314 113.20338 22203 ft 397 kts 174°
2026-04-24 07:33 23.78658 113.21043 21564 ft 389 kts 174°
2026-04-24 07:33 23.76064 113.21732 20957 ft 380 kts 174°
2026-04-24 07:34 23.73482 113.22415 20351 ft 373 kts 174°
2026-04-24 07:34 23.70983 113.23076 19757 ft 367 kts 174°
2026-04-24 07:34 23.68517 113.23728 19175 ft 362 kts 174°
2026-04-24 07:34 23.66124 113.24034 18593 ft 344 kts 191°
2026-04-24 07:35 23.63761 113.23639 18019 ft 334 kts 197°
2026-04-24 07:35 23.61491 113.23145 17380 ft 331 kts 198°
2026-04-24 07:35 23.59240 113.22645 16752 ft 329 kts 197°
2026-04-24 07:35 23.57033 113.22168 16137 ft 327 kts 197°
2026-04-24 07:36 23.54809 113.21701 15506 ft 324 kts 196°
2026-04-24 07:36 23.52597 113.21245 14932 ft 322 kts 195°
2026-04-24 07:36 23.50408 113.20797 14363 ft 320 kts 195°
2026-04-24 07:36 23.48228 113.20341 13852 ft 316 kts 195°
2026-04-24 07:37 23.46095 113.19889 13415 ft 309 kts 195°
2026-04-24 07:37 23.44014 113.19449 13022 ft 301 kts 195°
2026-04-24 07:37 23.41981 113.19021 12646 ft 294 kts 195°
2026-04-24 07:37 23.39990 113.18600 12272 ft 288 kts 195°
2026-04-24 07:38 23.38045 113.18190 11908 ft 283 kts 195°
2026-04-24 07:38 23.36117 113.17784 11539 ft 281 kts 194°
2026-04-24 07:38 23.34206 113.17381 11186 ft 279 kts 194°
2026-04-24 07:38 23.32302 113.16979 10839 ft 278 kts 194°
2026-04-24 07:39 23.30405 113.16579 10467 ft 277 kts 194°
2026-04-24 07:39 23.28520 113.16181 10125 ft 276 kts 194°
2026-04-24 07:39 23.26644 113.15785 9772 ft 274 kts 194°
2026-04-24 07:39 23.24791 113.15395 9387 ft 269 kts 193°
2026-04-24 07:40 23.22967 113.15012 9003 ft 264 kts 193°
2026-04-24 07:40 23.21184 113.14638 8711 ft 257 kts 193°
2026-04-24 07:40 23.19461 113.14267 8457 ft 248 kts 195°
2026-04-24 07:40 23.17808 113.13833 8227 ft 239 kts 197°
2026-04-24 07:41 23.16237 113.13404 7988 ft 227 kts 197°
2026-04-24 07:41 23.14742 113.12998 7726 ft 217 kts 197°
2026-04-24 07:41 23.13310 113.12608 7464 ft 207 kts 197°
2026-04-24 07:41 23.11922 113.12231 7125 ft 205 kts 197°
2026-04-24 07:42 23.10546 113.11859 6774 ft 203 kts 197°
2026-04-24 07:42 23.09160 113.11875 6491 ft 202 kts 157°
2026-04-24 07:42 23.08115 113.12810 6560 ft 202 kts 132°
2026-04-24 07:42 23.07344 113.14165 6594 ft 213 kts 119°
2026-04-24 07:43 23.06698 113.15584 6594 ft 206 kts 118°
2026-04-24 07:43 23.06070 113.16970 6456 ft 204 kts 118°
2026-04-24 07:43 23.05443 113.18335 6271 ft 201 kts 119°
2026-04-24 07:43 23.05035 113.19228 6145 ft 198 kts 116°
2026-04-24 07:44 23.04859 113.20680 5925 ft 197 kts 71°
2026-04-24 07:44 23.05678 113.21790 5741 ft 191 kts 23°
2026-04-24 07:44 23.06909 113.22320 5541 ft 193 kts 19°
2026-04-24 07:44 23.08185 113.22824 5317 ft 196 kts 16°
2026-04-24 07:45 23.09485 113.23254 5072 ft 194 kts 14°
2026-04-24 07:45 23.10772 113.23635 4842 ft 190 kts 13°
2026-04-24 07:45 23.12005 113.23982 4608 ft 186 kts 13°
2026-04-24 07:45 23.13237 113.24322 4391 ft 181 kts 12°
2026-04-24 07:46 23.14444 113.24651 4184 ft 176 kts 13°
2026-04-24 07:46 23.15622 113.24971 3966 ft 172 kts 13°
2026-04-24 07:46 23.16768 113.25282 3782 ft 169 kts 13°
2026-04-24 07:46 23.17912 113.25593 3600 ft 170 kts 14°
2026-04-24 07:47 23.19056 113.25904 3556 ft 166 kts 14°
2026-04-24 07:47 23.20204 113.26217 3380 ft 173 kts 14°
2026-04-24 07:47 23.21376 113.26535 3167 ft 174 kts 14°
2026-04-24 07:47 23.22539 113.26851 2935 ft 171 kts 14°
2026-04-24 07:48 23.23674 113.27159 2722 ft 166 kts 14°
2026-04-24 07:48 23.24779 113.27456 2494 ft 163 kts 13°
2026-04-24 07:48 23.25869 113.27753 2302 ft 159 kts 14°
2026-04-24 07:48 23.26894 113.28034 2120 ft 143 kts 14°
2026-04-24 07:49 23.27844 113.28292 1901 ft 140 kts 14°
2026-04-24 07:49 23.28788 113.28549 1723 ft 140 kts 14°
2026-04-24 07:49 23.29737 113.28806 1527 ft 141 kts 13°
2026-04-24 07:49 23.30692 113.29066 1337 ft 142 kts 12°
2026-04-24 07:50 23.31644 113.29320 1159 ft 140 kts 12°
2026-04-24 07:50 23.32594 113.29561 941 ft 140 kts 13°
2026-04-24 07:50 23.33539 113.29833 759 ft 141 kts 14°
2026-04-24 07:50 23.34494 113.30102 581 ft 143 kts 13°
2026-04-24 07:51 23.35469 113.30357 413 ft 145 kts 12°
2026-04-24 07:51 23.36446 113.30621 210 ft 145 kts 13°
2026-04-24 07:51 23.37412 113.30889 68 ft 141 kts 13°
2026-04-24 07:51 23.38331 113.31136 50 ft 107 kts 14°
2026-04-24 07:52 23.38700 113.31194 53 ft 33 kts 349°
2026-04-24 07:52 23.38860 113.31152 51 ft 22 kts 346°
2026-04-24 07:52 23.39011 113.31128 56 ft 22 kts
2026-04-24 07:52 23.39116 113.31085 57 ft 16 kts 287°
2026-04-24 07:53 23.39140 113.30987 51 ft 12 kts 284°
2026-04-24 07:53 23.39161 113.30899 58 ft 12 kts 284°
2026-04-24 07:53 23.39176 113.30810 55 ft 12 kts 266°
2026-04-24 07:53 23.39122 113.30753 56 ft 12 kts 197°
2026-04-24 07:54 23.39046 113.30731 51 ft 11 kts 192°
2026-04-24 07:54 23.38970 113.30712 52 ft 11 kts 194°
2026-04-24 07:54 23.38898 113.30692 53 ft 11 kts 194°
2026-04-24 07:54 23.38827 113.30672 56 ft 10 kts 194°
2026-04-24 07:55 23.38762 113.30654 50 ft 5 kts 194°
2026-04-24 07:55 23.38721 113.30644 55 ft 8 kts 192°
2026-04-24 07:55 23.38661 113.30628 52 ft 10 kts 195°
2026-04-24 07:55 23.38584 113.30606 56 ft 13 kts 193°
2026-04-24 07:56 23.38492 113.30582 53 ft 15 kts 194°
2026-04-24 07:56 23.38387 113.30549 50 ft 15 kts 207°
2026-04-24 07:56 23.38370 113.30455 57 ft 12 kts 282°
2026-04-24 07:56 23.38393 113.30357 51 ft 14 kts 284°
2026-04-24 07:57 23.38437 113.30267 55 ft 13 kts 320°
2026-04-24 07:57 23.38462 113.30202 54 ft 7 kts 248°
2026-04-24 07:57 23.38440 113.30168 54 ft 4 kts 232°
2026-04-24 07:57 23.38435 113.30162 56 ft 1 kts 232°
2026-04-24 07:58 23.38431 113.30156 51 ft 1 kts 232°
2026-04-24 07:58 23.38429 113.30154 52 ft 0 kts 232°